Change the Weather History Date:

Tuesday, May 8, 2012

  Actual Average Record
Temperature  
Mean Temperature 58 °F -  
Max Temperature 67 °F 68 °F 86 °F (1963)
Min Temperature 48 °F 44 °F 25 °F (1976)
Degree Days  
Heating Degree Days 8    
Growing Degree Days 8 (Base 50)    
Moisture  
Dew Point 48 °F    
Average Humidity 72    
Maximum Humidity 94    
Minimum Humidity 42    
Precipitation  
Precipitation 0.00 in - - ()
Sea Level Pressure  
Sea Level Pressure 29.85 in    
Wind  
Wind Speed 5 mph (WNW)    
Max Wind Speed 15 mph    
Max Gust Speed 22 mph    
Visibility 7 miles    
Events Fog    
Averages and records for this station are not official NWS values.
T = Trace of Precipitation, MM = Missing Value Source: NWS Daily Summary

Daily Weather History Graph

Daily Weather History Graph

Search for Another Location

Airport or City:

Trip Planner

Search our weather history database for the weather conditions in past years. The results will help you decide how hot, cold, wet, or windy it might be!

Date:

Astronomy

May. 08, 2012 Rise Set
Actual Time 6:29 AM EDT 8:49 PM EDT
Civil Twilight 5:57 AM EDT 9:20 PM EDT
Nautical Twilight 5:19 AM EDT 9:59 PM EDT
Astronomical Twilight 4:36 AM EDT 10:42 PM EDT
Moon No Moon Rise 8:34 AM EDT (5/8)
Length of Visible Light 15h 22m
Length of Day
14h 20m
Waning Gibbous, 91% of the Moon is Illuminated
May 8
Waning Gibbous
May 12
Last Quarter
May 20
New
May 28
First Quarter
Jun 4
Full

Hourly Weather History & Observations

Time (EDT) Temp. Dew Point Humidity Pressure Visibility Wind Dir Wind Speed Gust Speed Precip Events Conditions
12:15 AM 51.3 °F 47.8 °F 88% 29.87 in 7.0 mi West 4.6 mph - N/A   Clear
12:35 AM 51.1 °F 47.5 °F 87% 29.87 in 10.0 mi WNW 4.6 mph - N/A   Clear
12:54 AM 51.1 °F 47.3 °F 87% 29.87 in 10.0 mi West 3.5 mph - N/A   Clear
1:34 AM 50.5 °F 46.4 °F 86% 29.86 in 10.0 mi WNW 3.5 mph - N/A   Clear
1:54 AM 50.2 °F 46.6 °F 87% 29.86 in 10.0 mi Calm Calm - N/A   Clear
2:15 AM 49.3 °F 46.4 °F 90% 29.85 in 7.0 mi Calm Calm - N/A   Clear
2:34 AM 50.0 °F 46.8 °F 89% 29.84 in 7.0 mi Calm Calm - N/A   Clear
2:55 AM 48.6 °F 45.9 °F 90% 29.83 in 5.0 mi Calm Calm - N/A   Clear
3:15 AM 48.9 °F 46.6 °F 92% 29.83 in 4.0 mi Calm Calm - N/A   Clear
3:34 AM 48.4 °F 46.6 °F 93% 29.83 in 2.5 mi West 3.5 mph - N/A   Mostly Cloudy
3:55 AM 49.3 °F 47.5 °F 94% 29.83 in 1.8 mi WNW 5.8 mph - N/A   Overcast
4:15 AM 50.0 °F 48.2 °F 94% 29.84 in 1.8 mi NW 4.6 mph - N/A   Overcast
4:34 AM 50.0 °F 47.7 °F 92% 29.83 in 2.5 mi NW 4.6 mph - N/A   Overcast
4:55 AM 50.0 °F 47.5 °F 91% 29.83 in 2.5 mi WNW 5.8 mph - N/A   Overcast
5:15 AM 50.0 °F 47.8 °F 92% 29.83 in 2.5 mi WNW 6.9 mph - N/A   Overcast
5:34 AM 49.5 °F 47.3 °F 92% 29.83 in 2.5 mi WNW 8.1 mph - N/A   Overcast
5:55 AM 50.0 °F 48.0 °F 93% 29.84 in 2.5 mi WNW 6.9 mph - N/A   Overcast
6:14 AM 50.4 °F 48.4 °F 93% 29.85 in 2.5 mi WNW 6.9 mph - N/A   Overcast
6:35 AM 50.4 °F 48.4 °F 93% 29.86 in 2.0 mi WNW 3.5 mph - N/A   Overcast
6:54 AM 50.9 °F 48.7 °F 92% 29.85 in 0.8 mi NW 3.5 mph - N/A   Overcast
7:14 AM 50.9 °F 48.7 °F 92% 29.85 in 0.5 mi NNW 3.5 mph - N/A Fog Fog
7:35 AM 51.3 °F 49.3 °F 93% 29.85 in 0.8 mi Calm Calm - N/A   Overcast
7:54 AM 52.2 °F 49.8 °F 92% 29.85 in 0.8 mi Calm Calm - N/A   Overcast
8:15 AM 52.5 °F 49.8 °F 91% 29.85 in 1.0 mi Calm Calm - N/A   Overcast
8:54 AM 53.4 °F 51.1 °F 92% 29.86 in 2.0 mi Calm Calm - N/A   Overcast
9:15 AM 55.4 °F 52.0 °F 88% 29.86 in 4.0 mi Calm Calm - N/A   Scattered Clouds
9:35 AM 56.7 °F 52.5 °F 86% 29.86 in 5.0 mi Calm Calm - N/A   Clear
9:54 AM 58.5 °F 53.4 °F 83% 29.85 in 5.0 mi South 3.5 mph - N/A   Haze
10:15 AM 60.4 °F 54.1 °F 80% 29.84 in 5.0 mi Calm Calm - N/A   Haze
10:35 AM 61.9 °F 54.3 °F 76% 29.84 in 7.0 mi Calm Calm - N/A   Clear
10:54 AM 63.5 °F 54.7 °F 73% 29.85 in 10.0 mi SSW 3.5 mph - N/A   Scattered Clouds
11:15 AM 65.3 °F 56.5 °F 73% 29.85 in 10.0 mi WSW 4.6 mph - N/A   Mostly Cloudy
11:34 AM 65.3 °F 54.9 °F 69% 29.85 in 10.0 mi WSW 8.1 mph - N/A   Mostly Cloudy
11:55 AM 64.9 °F 55.8 °F 72% 29.86 in 7.0 mi WSW 9.2 mph - N/A   Scattered Clouds
12:15 PM 63.1 °F 55.4 °F 76% 29.86 in 5.0 mi West 9.2 mph - N/A   Haze
12:34 PM 61.0 °F 54.7 °F 80% 29.87 in 4.0 mi West 11.5 mph - N/A   Haze
12:55 PM 61.9 °F 54.5 °F 77% 29.86 in 5.0 mi WNW 11.5 mph - N/A   Haze
1:15 PM 63.3 °F 53.6 °F 71% 29.86 in 7.0 mi West 10.4 mph - N/A   Scattered Clouds
1:34 PM 65.7 °F 53.1 °F 64% 29.86 in 10.0 mi WNW 12.7 mph - N/A   Clear
1:55 PM 65.8 °F 52.0 °F 61% 29.86 in 10.0 mi WNW 10.4 mph - N/A   Scattered Clouds
2:14 PM 66.6 °F 51.4 °F 58% 29.86 in 10.0 mi West 11.5 mph - N/A   Scattered Clouds
2:34 PM 67.1 °F 49.5 °F 53% 29.85 in 10.0 mi West 12.7 mph 18.4 mph N/A   Scattered Clouds
2:55 PM 66.4 °F 46.4 °F 49% 29.85 in 10.0 mi WNW 12.7 mph 20.7 mph N/A   Scattered Clouds
3:14 PM 67.1 °F 45.3 °F 45% 29.85 in 10.0 mi WNW 8.1 mph 17.3 mph N/A   Clear
3:35 PM 67.5 °F 43.3 °F 42% 29.85 in 10.0 mi NW 13.8 mph 20.7 mph N/A   Clear
3:55 PM 66.9 °F 43.2 °F 42% 29.86 in 10.0 mi WNW 12.7 mph 21.9 mph N/A   Scattered Clouds
4:14 PM 66.7 °F 43.3 °F 43% 29.85 in 10.0 mi NW 12.7 mph 17.3 mph N/A   Scattered Clouds
4:35 PM 67.1 °F 43.2 °F 42% 29.85 in 10.0 mi WNW 12.7 mph 18.4 mph N/A   Scattered Clouds
4:55 PM 66.7 °F 44.8 °F 45% 29.85 in 10.0 mi WNW 12.7 mph 19.6 mph N/A   Scattered Clouds
5:14 PM 67.1 °F 43.3 °F 42% 29.85 in 10.0 mi West 15.0 mph 21.9 mph N/A   Clear
5:35 PM 66.6 °F 42.4 °F 42% 29.85 in 10.0 mi WNW 10.4 mph 21.9 mph N/A   Clear
5:55 PM 66.4 °F 42.6 °F 42% 29.85 in 10.0 mi WNW 13.8 mph 20.7 mph N/A   Clear
6:14 PM 65.7 °F 43.0 °F 44% 29.85 in 10.0 mi West 10.4 mph 16.1 mph N/A   Scattered Clouds
6:35 PM 66.2 °F 42.3 °F 42% 29.85 in 10.0 mi WNW 11.5 mph 17.3 mph N/A   Scattered Clouds
6:54 PM 65.3 °F 42.8 °F 44% 29.85 in 10.0 mi WNW 11.5 mph - N/A   Clear
7:15 PM 64.4 °F 43.3 °F 46% 29.85 in 10.0 mi West 9.2 mph - N/A   Clear
7:35 PM 64.4 °F 43.5 °F 47% 29.84 in 10.0 mi West 8.1 mph - N/A   Clear
7:54 PM 63.1 °F 42.6 °F 47% 29.84 in 10.0 mi WNW 8.1 mph - N/A   Clear
8:15 PM 61.3 °F 43.9 °F 53% 29.85 in 10.0 mi West 6.9 mph - N/A   Clear
8:35 PM 58.6 °F 45.0 °F 60% 29.85 in 10.0 mi West 4.6 mph - N/A   Clear
8:54 PM 59.4 °F 43.0 °F 55% 29.85 in 10.0 mi West 3.5 mph - N/A   Clear
9:15 PM 59.0 °F 41.9 °F 53% 29.85 in 10.0 mi Calm Calm - N/A   Clear
9:35 PM 55.6 °F 44.1 °F 65% 29.85 in 10.0 mi Calm Calm - N/A   Clear
9:54 PM 55.4 °F 43.3 °F 64% 29.85 in 10.0 mi Calm Calm - N/A   Clear
10:15 PM 54.5 °F 43.9 °F 67% 29.86 in 10.0 mi Calm Calm - N/A   Clear
10:34 PM 51.4 °F 44.6 °F 77% 29.86 in 10.0 mi Calm Calm - N/A   Clear
10:55 PM 52.7 °F 44.6 °F 74% 29.85 in 10.0 mi Calm Calm - N/A   Clear
11:15 PM 51.6 °F 44.4 °F 76% 29.85 in 10.0 mi Calm Calm - N/A   Clear
11:34 PM 50.0 °F 45.5 °F 85% 29.85 in 10.0 mi SSW 3.5 mph - N/A   Clear
11:55 PM 51.8 °F 46.6 °F 82% 29.85 in 10.0 mi SSW 3.5 mph - N/A   Clear